Miscellaneous Local Product
Issued by NWS North Platte, NE

Home | Current Version | Previous Version | Graphics & Text | Print | Product List | Glossary On
Versions: 1 2 3 4 5 6 7 8 9 10 11 12 13 14 15 16 17 18 19 20 21 22 23 24 25 26 27 28 29 30 31 32 33 34 35 36 37 38 39 40 41 42 43 44 45 46 47 48 49 50
184
AXUS43 KLBF 191110
MISLBF


WESTERN AND NORTH CENTRAL NEBRASKA HOURLY WEATHER ROUNDUP
NATIONAL WEATHER SERVICE NORTH PLATTE NE
600 AM CDT SAT MAY 19 2018

NOTE: "FAIR" INDICATES FEW OR NO CLOUDS BELOW 12,000 FEET WITH NO
SIGNIFICANT WEATHER AND/OR OBSTRUCTIONS TO VISIBILITY.

NOTE: STATIONS NOT REPORTING VARIABLES SUCH AS SKY/WEATHER OR
PRESSURE ARE PROVIDED BY RAWS AND APRS NETWORKS AND ARE NOT UNDER
NATIONAL WEATHER SERVICE QUALITY CONTROL.

...OBSERVATIONS IN AND NEAR THE EASTERN PANHANDLE OF NEBRASKA...

CITY           SKY/WX    TMP DP  RH WIND       PRES   REMARKS
PINE RIDGE     CLOUDY    45  45 100 NE13      30.12S
GORDON         CLOUDY    45  44  95 N17G26    30.07S FOG
CHADRON        CLOUDY    45  45 100 NE14      30.12S
ALLIANCE       LGT RAIN  46  46 100 N29G36    30.00F
SIDNEY         HVY RAIN  49  48  97 NE22G33   29.94R FOG
CRESCENT LAKE    N/A     47  46  95 NE24G33     N/A
$$

...OBSERVATIONS IN NORTHERN NEBRASKA AND FAR SOUTHERN SOUTH DAKOTA...

CITY           SKY/WX    TMP DP  RH WIND       PRES   REMARKS
WINNER         LGT RAIN  47  44  90 N14       30.07F FOG
VALENTINE      CLOUDY    47  46  97 N12G21    30.07R FOG
AINSWORTH      LGT RAIN  46  46 100 N20G31    30.02S
O`NEILL        FOG       48  47  97 N20G28    30.00S VSB 1
THEDFORD       LGT RAIN  48  47  96 N12G25    30.00S
BROKEN BOW     HVY RAIN  52  50  93 N14G24    29.95R
ORD            LGT RAIN  51  50  96 N12       29.95S
ALBION         LGT RAIN  52  49  91 N10       29.96R
VALENTINE NWR    N/A     46  45  98 N14G26      N/A
HALSEY           N/A     50  50  99 N7G16       N/A
BUTTE            N/A     45  44  95 N18         N/A
CHAMBERS         N/A     48  47  98 E10         N/A
EWING            N/A     48  47  95 NE8G15      N/A
$$

...OBSERVATIONS IN SOUTHWEST NEBRASKA AND FAR NORTHEAST COLORADO...

CITY           SKY/WX    TMP DP  RH WIND       PRES   REMARKS
WRAY           CLOUDY    54  50  87 S15G22    29.90F
HOLYOKE        LGT RAIN  55  54  94 NE14      29.87S
IMPERIAL       CLOUDY    55  54  96 S8        29.90R
OGALLALA       LGT RAIN  57  55  95 NE22G28   29.92R
NORTH PLATTE   RAIN      56  55  97 NE17G28   29.93R
MCCOOK         CLOUDY    57  55  93 S8        29.92R
LEXINGTON      RAIN      60  59  96 NE13      29.90F
STAPLETON        N/A     50  49  97 NE8G17      N/A
GOTHENBURG       N/A     58  54  86 N3          N/A
CALLAWAY         N/A     56  55  97 E9          N/A
$$

...OBSERVATIONS IN CENTRAL LINCOLN COUNTY AREA...

CITY           SKY/WX    TMP DP  RH WIND       PRES   REMARKS
N.P. AIRPORT   RAIN      56  55  97 NE17G28   29.93R
N.P. DOWNTOWN    N/A     54  54 100 NE12G18     N/A
N.P. SOUTHEAST   N/A     55  53  93 NE7G15      N/A
$$

...OBSERVATIONS ACROSS THE ROCKIES AND WESTERN HIGH PLAINS...

CITY           SKY/WX    TMP DP  RH WIND       PRES   REMARKS
RAPID CITY     LGT RAIN  43  42  97 N17G23    30.16S FOG
SCOTTSBLUFF    LGT RAIN  48  32  53 N17G29    30.03S
CHEYENNE       LGT RAIN  44  44 100 N18G25    30.06S VSB 1
DENVER         LGT RAIN  50  45  83 NW14G24   30.05R
BERTHOUD PASS  HAZE      27  16  63 SE5       30.26S VSB<1/4 WCI  21
COPPER MTN     CLOUDY    37  28  70 MISG      30.24R
MONARCH PASS   PTCLDY    32  19  59 MISG      30.35R
ASPEN          MOCLDY    41  26  55 SW7       30.06S
STEAMBOAT      FAIR      40  34  78 CALM      30.04R
LARAMIE        CLOUDY    43  41  93 N7        30.10R
CASPER         CLOUDY    42  41  96 N16       30.14S
$$

...OBSERVATIONS ACROSS THE NORTHERN PLAINS...

CITY           SKY/WX    TMP DP  RH WIND       PRES   REMARKS
BISMARCK       MOCLDY    44  37  76 N10       30.23S
FARGO          CLOUDY    43  41  93 N22G36    30.07R
PIERRE         CLOUDY    47  45  93 N16       30.11R
SIOUX FALLS    CLOUDY    47  44  90 N12G22    29.99S
$$

...OBSERVATIONS ACROSS THE CENTRAL AND SOUTHERN PLAINS...

CITY           SKY/WX    TMP DP  RH WIND       PRES   REMARKS
OMAHA          CLOUDY    66  59  78 N12       29.86F
GRAND ISLAND   LGT RAIN  60  60 100 NE15      29.91F FOG
KANSAS CITY    LGT RAIN  66  63  90 W3        29.91F
WICHITA        CLOUDY    65  64  97 NE10      29.81F
DODGE CITY     MOCLDY    58  56  93 E13       29.84F
OKLAHOMA CITY  MOCLDY    70  66  87 S3        29.77S
DALLAS         MOCLDY    75  68  78 S14       29.82R
AMARILLO       CLEAR     50  34  54 SW8       29.82R
$$




USA.gov is the U.S. government's official web portal to all federal, state and local government web resources and services.